Weather History for Dalhart, TX

Change the Weather History Date:

Saturday, December 21, 2013

  Actual Average Record
Temperature  
Mean Temperature 22 °F 34 °F  
Max Temperature 31 °F 48 °F 70 °F (1981)
Min Temperature 12 °F 19 °F -6 °F (1990)
Degree Days  
Heating Degree Days 43 31  
Month to date heating degree days 654 633  
Since 1 July heating degree days 1600 1628  
Cooling Degree Days 0 0  
Month to date cooling degree days 0 0  
Year to date cooling degree days 1576 1138  
Moisture  
Dew Point 18 °F    
Average Humidity 73    
Maximum Humidity 88    
Minimum Humidity 58    
Precipitation  
Precipitation 0.21 in 0.01 in 0.47 in (1991)
Month to date precipitation 0.21 0.37  
Year to date precipitation 7.84 17.42  
Snow  
Snow 6.00 in 0.10 in 6.00 in (2013)
Month to date snowfall 6.5 2.9  
Since 1 July snowfall 9.5 4.8  
Snow Depth 0.00 in    
Sea Level Pressure  
Sea Level Pressure 29.65 in    
Wind  
Wind Speed 8 mph (NNE)    
Max Wind Speed 15 mph    
Max Gust Speed 17 mph    
Visibility 6 miles    
Events Fog , Snow    
T = Trace of Precipitation, MM = Missing Value Source: NWS Daily Summary

Daily Weather History Graph

Daily Weather History Graph

Search for Another Location

Airport:

Trip Planner

Search our weather history database for the weather conditions in past years. The results will help you decide how hot, cold, wet, or windy it might be!

Date:

Astronomy

Dec. 21, 2013 Rise Set
Actual Time 7:57 AM CST 5:39 PM CST
Civil Twilight 7:28 AM CST 6:08 PM CST
Nautical Twilight 6:56 AM CST 6:40 PM CST
Astronomical Twilight 6:25 AM CST 7:11 PM CST
Moon 9:51 PM CST (12/21) 10:30 AM CST (12/21)
Length of Visible Light 10h 39m
Length of Day
9h 42m
Waning Gibbous, 84% of the Moon is Illuminated
Dec 21
Waning Gibbous
Dec 25
Last Quarter
Jan 1
New
Jan 7
First Quarter
Jan 15
Full

Hourly Weather History & Observations

Time (CST) Temp. Windchill Dew Point Humidity Pressure Visibility Wind Dir Wind Speed Gust Speed Precip Events Conditions
12:53 AM 30.9 °F 24.3 °F 19.0 °F 61% 29.70 in 10.0 mi SE 6.9 mph - N/A   Overcast
1:53 AM 30.9 °F 24.3 °F 18.0 °F 59% 29.66 in 10.0 mi SSE 6.9 mph - N/A   Overcast
2:24 AM 30.9 °F 24.3 °F 18.0 °F 59% 29.63 in 10.0 mi SE 6.9 mph - N/A   Overcast
2:53 AM 30.9 °F 27.5 °F 18.0 °F 59% 29.65 in 10.0 mi SE 3.5 mph - N/A   Overcast
3:53 AM 30.0 °F 24.1 °F 17.1 °F 59% 29.64 in 10.0 mi SE 5.8 mph - N/A   Scattered Clouds
4:53 AM 30.0 °F 25.2 °F 18.0 °F 61% 29.62 in 10.0 mi NE 4.6 mph - N/A   Partly Cloudy
5:32 AM 28.9 °F 23.9 °F 17.1 °F 61% 29.59 in 10.0 mi NE 4.6 mph - N/A   Mostly Cloudy
5:39 AM 28.9 °F 23.9 °F 17.1 °F 61% 29.59 in 10.0 mi NE 4.6 mph - N/A   Mostly Cloudy
5:53 AM 28.0 °F 20.0 °F 17.1 °F 63% 29.62 in 10.0 mi ENE 8.1 mph - N/A   Partly Cloudy
6:53 AM 26.1 °F 16.2 °F 17.1 °F 69% 29.62 in 10.0 mi NE 10.4 mph - N/A   Scattered Clouds
7:53 AM 25.0 °F 15.5 °F 17.1 °F 72% 29.62 in 10.0 mi NNE 9.2 mph - N/A   Overcast
8:53 AM 25.0 °F 16.3 °F 17.1 °F 72% 29.62 in 8.0 mi NNE 8.1 mph - N/A   Overcast
9:46 AM 25.0 °F - 17.1 °F 72% 29.61 in 10.0 mi Calm Calm - N/A   Overcast
9:53 AM 25.0 °F 19.3 °F 17.1 °F 72% 29.65 in 10.0 mi ENE 4.6 mph - N/A   Overcast
10:08 AM 25.0 °F 18.1 °F 18.0 °F 75% 29.60 in 1.5 mi NNE 5.8 mph - 0.00 in Snow Light Snow
10:21 AM 24.1 °F 15.2 °F 19.0 °F 81% 29.60 in 0.5 mi NE 8.1 mph - 0.00 in Snow Snow
10:53 AM 24.1 °F 13.7 °F 19.9 °F 84% 29.63 in 0.5 mi NNE 10.4 mph - 0.00 in Fog , Snow Snow
11:07 AM 24.1 °F 14.4 °F 19.9 °F 84% 29.58 in 0.2 mi NNE 9.2 mph - 0.01 in Fog , Snow Snow
11:26 AM 23.0 °F 12.4 °F 19.9 °F 88% 29.56 in 0.2 mi NNE 10.4 mph - 0.03 in Fog , Snow Heavy Snow
11:53 AM 23.0 °F 11.7 °F 19.9 °F 88% 29.60 in 0.2 mi North 11.5 mph - 0.06 in Fog , Snow Heavy Snow
12:53 PM 24.1 °F 14.4 °F 19.9 °F 84% 29.60 in 0.2 mi NNE 9.2 mph - 0.08 in Fog , Snow Heavy Snow
1:53 PM 24.1 °F 13.7 °F 19.9 °F 84% 29.59 in 0.2 mi North 10.4 mph - 0.04 in Fog , Snow Heavy Snow
2:38 PM 24.1 °F 15.2 °F 19.9 °F 84% 29.55 in 0.5 mi NNE 8.1 mph - 0.03 in Fog , Snow Snow
2:53 PM 24.1 °F 17.0 °F 19.9 °F 84% 29.60 in 0.5 mi NE 5.8 mph - 0.03 in Fog , Snow Snow
3:26 PM 23.0 °F 13.1 °F 19.0 °F 85% 29.55 in 0.5 mi ENE 9.2 mph - 0.00 in Fog , Snow Light Snow
3:53 PM 23.0 °F 14.7 °F 19.0 °F 85% 29.61 in 0.5 mi NE 6.9 mph - 0.00 in Fog , Snow Snow
4:09 PM 23.0 °F 14.7 °F 19.0 °F 85% 29.57 in 1.2 mi NE 6.9 mph - 0.00 in Snow Light Snow
4:38 PM 23.0 °F 13.9 °F 19.0 °F 85% 29.59 in 1.5 mi North 8.1 mph - 0.00 in Snow Light Snow
4:50 PM 23.0 °F 13.9 °F 19.4 °F 86% 29.60 in 2.0 mi North 8.1 mph - 0.00 in Snow Light Snow
4:53 PM 23.0 °F 14.7 °F 19.0 °F 85% 29.65 in 2.0 mi North 6.9 mph - 0.00 in Snow Light Snow
5:10 PM 23.0 °F - 19.0 °F 85% 29.61 in 3.0 mi North - - 0.00 in Snow Light Snow
5:25 PM 23.0 °F 14.7 °F 19.0 °F 85% 29.62 in 2.5 mi NW 6.9 mph - 0.00 in Snow Light Snow
5:32 PM 23.0 °F 17.0 °F 19.0 °F 85% 29.63 in 4.0 mi NNW 4.6 mph - 0.00 in Snow Light Snow
5:53 PM 21.0 °F 13.4 °F 17.1 °F 85% 29.69 in 9.0 mi NNW 5.8 mph - 0.00 in   Mostly Cloudy
6:53 PM 18.0 °F 8.7 °F 14.0 °F 84% 29.75 in 8.0 mi NNW 6.9 mph - N/A   Mostly Cloudy
7:53 PM 16.0 °F 3.6 °F 12.9 °F 88% 29.80 in 7.0 mi NW 10.4 mph - N/A   Mostly Cloudy
8:53 PM 19.0 °F 8.2 °F 15.1 °F 85% 29.81 in 9.0 mi NNW 9.2 mph - N/A   Overcast
9:53 PM 19.9 °F 9.3 °F 15.1 °F 81% 29.83 in 10.0 mi North 9.2 mph - N/A   Clear
10:53 PM 15.1 °F 4.2 °F 10.9 °F 84% 29.89 in 10.0 mi NW 8.1 mph - N/A   Scattered Clouds
11:53 PM 19.0 °F 7.5 °F 12.0 °F 74% 29.93 in 10.0 mi NNW 10.4 mph - N/A   Overcast